Flag for U.S.A. Weather past 2 weeks in Laredo, Texas, U.S.A.

Now
88 °F

Sunny.


Feels Like: 89 °F
Forecast: 63 / 88 °F
Wind: 14 mph from Southeast

Location: Laredo International Airport

Current Time: Mar 30, 2015 at 3:19:54 PM

Latest Report: Mar 30, 2015 at 2:56 PM


Visibility: 10 mi

Pressure: 30.06 "Hg

Humidity: 43%

Dew point: 63 °F

Location of LaredoLocation

Historic Weather in Laredo — Graph

°F

Laredo temperature yesterday

Maximum temperature yesterday: 88 °F (at 3:56 PM)
Minimum temperature yesterday: 59 °F (at 6:56 AM)
Average temperature yesterday: 73 °F

Past Weeks' High & Low Weather Summary

 TemperatureHumidityPressure
High88 °F (Mar 29, 3:56 PM)100% (Mar 17, 10:03 AM)30.26 "Hg (Mar 17, 10:03 AM)
Low48 °F (Mar 27, 6:56 AM)19% (Mar 28, 3:56 PM)29.76 "Hg (Mar 26, 12:56 AM)
Average69 °F76%30.04 "Hg
* Reported Mar 15 1:56 PM — Mar 30 1:56 PM, Laredo, Weather by CustomWeather, © 2015

Note: Actual official high and low records may vary slightly from our data, if they occured in-between our weather recording intervals... More about our weather records

Advertising

Laredo weather history for previous 24 hours

 ConditionsComfort  
Time TempWeatherWind HumidityBarometerVisibility
1:56 PM
Mon, Mar 30
85 °FPassing clouds.10 mph46%30.09 "Hg10 mi
12:56 PM82 °FSunny.6 mph53%30.12 "Hg10 mi
11:56 AM79 °FSunny.9 mph60%30.13 "Hg10 mi
10:56 AM75 °FSunny.7 mph69%30.12 "Hg10 mi
9:56 AM72 °FScattered clouds.12 mph76%30.11 "Hg10 mi
8:56 AM67 °FPartly sunny.10 mph90%30.09 "Hg10 mi
7:56 AM65 °FLow clouds.8 mph97%30.07 "Hg10 mi
6:56 AM65 °FLow clouds.8 mph97%30.05 "Hg10 mi
5:56 AM65 °FPassing clouds.8 mph94%30.03 "Hg10 mi
4:56 AM65 °FClear.9 mph94%30.01 "Hg10 mi
3:56 AM66 °FClear.10 mph91%30.01 "Hg10 mi
2:56 AM66 °FClear.12 mph91%30.02 "Hg10 mi
1:56 AM67 °FClear.10 mph87%30.03 "Hg10 mi
12:56 AM69 °FClear.13 mph82%30.04 "Hg10 mi
11:56 PM
Sun, Mar 29
70 °FClear.16 mph79%30.04 "Hg10 mi
10:56 PM72 °FClear.16 mph73%30.04 "Hg10 mi
9:56 PM75 °FClear.12 mph67%30.02 "Hg10 mi
8:56 PM78 °FClear.13 mph56%30.00 "Hg10 mi
7:56 PM82 °FSunny.14 mph47%29.98 "Hg10 mi
6:56 PM86 °FSunny.18 mph39%29.96 "Hg10 mi
5:56 PM88 °FSunny.18 mph36%29.96 "Hg10 mi
4:56 PM88 °FSunny.15 mph34%29.97 "Hg10 mi
3:56 PM88 °FSunny.15 mph36%29.98 "Hg10 mi
Weather by CustomWeather, © 2015

See weather overviewHow to use our weather pages